Location: ČR
(50.0000°N, 15.0000°E)
Time: 14:13:00
(UTC+01:00)

BlueWalker 3 - Visible Passes

Search period start: 05 December 2023 00:00
Search period end: 15 December 2023 00:00
Orbit: 489 x 503 km, 53.2° (Epoch: 04 December)

Date Brightness Start Highest point End Pass type
(mag) Time Alt. Az. Time Alt. Az. Time Alt. Az.
05 Dec 3.9 05:32:43 17° SSW 05:32:43 17° SSW 05:34:25 10° S visible
06 Dec 4.5 05:11:21 12° S 05:11:21 12° S 05:11:46 10° S visible
14 Dec 4.8 19:07:21 10° SSW 19:07:43 12° SSW 19:07:43 12° SSW visible
